Location: Congrier
(47.8099°N, 1.1170°W)
Time: 07:09:34
(UTC+00:00)

Cosmos 1607 - Pass Details

Date: 28 January 2023
Orbit: 921 x 981 km, 65.0° (Epoch: 30 March)

Event Time Altitude Azimuth Distance (km) Brightness Sun altitude
Rises 18:02:29 0° 196° (SSW) 3,548 7.4 -10.9°
Reaches altitude 10° 18:05:03 10° 191° (S) 2,611 6.6 -11.3°
Maximum altitude 18:10:52 49° 118° (ESE) 1,180 4.2 -12.3°
Enters shadow 18:16:06 13° 48° (NE) 2,422 5.6 -13.1°
